Weather History for Coldwater, MI

Change the Weather History Date:

Sunday, November 11, 2012

  Actual Average (KJYM) Record (KJYM)
Temperature  
Mean Temperature 61 °F -  
Max Temperature 68 °F 46 °F 70 °F (1964)
Min Temperature 54 °F 29 °F 17 °F (1950)
Degree Days  
Heating Degree Days 4    
Growing Degree Days 11 (Base 50)    
Moisture  
Dew Point 43 °F    
Average Humidity 52    
Maximum Humidity 63    
Minimum Humidity 38    
Precipitation  
Precipitation 0.00 in - - ()
Sea Level Pressure  
Sea Level Pressure 30.01 in    
Wind  
Wind Speed 12 mph (South)    
Max Wind Speed 21 mph    
Max Gust Speed 30 mph    
Visibility 10 miles    
Events Rain    
Averages and records for this station are not official NWS values.
T = Trace of Precipitation, MM = Missing Value Source: NWS Daily Summary

Daily Weather History Graph

Daily Weather History Graph

Search for Another Location

Airport:

Trip Planner

Search our weather history database for the weather conditions in past years. The results will help you decide how hot, cold, wet, or windy it might be!

Date:

Astronomy

Nov. 11, 2012 Rise Set
Actual Time 7:25 AM EST 5:22 PM EST
Civil Twilight 6:55 AM EST 5:52 PM EST
Nautical Twilight 6:22 AM EST 6:25 PM EST
Astronomical Twilight 5:49 AM EST 6:58 PM EST
Moon 4:36 AM EST (11/11) 3:47 PM EST (11/11)
Length of Visible Light 10h 56m
Length of Day
9h 56m
Waning Crescent, 7% of the Moon is Illuminated
Nov 11
Waning Crescent
Nov 13
New
Nov 20
First Quarter
Nov 28
Full
Dec 6
Last Quarter

Hourly Weather History & Observations

Time (EST) Temp. Dew Point Humidity Pressure Visibility Wind Dir Wind Speed Gust Speed Precip Events Conditions
12:14 AM 60.4 °F 45.5 °F 58% 30.03 in 10.0 mi SSW 9.2 mph 17.3 mph N/A   Clear
12:35 AM 60.3 °F 45.7 °F 59% 30.03 in 10.0 mi SSW 11.5 mph 19.6 mph N/A   Clear
12:54 AM 60.6 °F 45.5 °F 57% 30.03 in 10.0 mi SSW 11.5 mph 18.4 mph N/A   Clear
1:15 AM 60.1 °F 45.5 °F 59% 30.04 in 10.0 mi SSW 13.8 mph 19.6 mph N/A   Clear
1:35 AM 59.9 °F 45.1 °F 58% 30.04 in 10.0 mi SSW 13.8 mph 19.6 mph N/A   Clear
1:54 AM 59.7 °F 44.8 °F 58% 30.04 in 10.0 mi SSW 11.5 mph 18.4 mph N/A   Clear
2:15 AM 59.5 °F 44.6 °F 58% 30.04 in 10.0 mi SSW 6.9 mph - N/A   Clear
2:34 AM 59.4 °F 44.4 °F 58% 30.04 in 10.0 mi South 9.2 mph - N/A   Clear
2:55 AM 59.0 °F 44.2 °F 58% 30.05 in 10.0 mi SSW 9.2 mph 18.4 mph N/A   Clear
3:15 AM 59.0 °F 43.7 °F 57% 30.05 in 10.0 mi South 9.2 mph 18.4 mph N/A   Clear
3:34 AM 59.2 °F 43.3 °F 56% 30.05 in 10.0 mi South 11.5 mph 18.4 mph N/A   Clear
3:55 AM 58.6 °F 43.2 °F 56% 30.06 in 10.0 mi SSW 10.4 mph 18.4 mph N/A   Clear
4:14 AM 58.3 °F 43.0 °F 57% 30.06 in 10.0 mi SSW 10.4 mph 19.6 mph N/A   Clear
4:34 AM 57.7 °F 43.0 °F 58% 30.07 in 10.0 mi South 9.2 mph - N/A   Clear
4:55 AM 57.2 °F 43.0 °F 59% 30.07 in 10.0 mi South 9.2 mph - N/A   Clear
5:14 AM 57.2 °F 42.8 °F 59% 30.08 in 10.0 mi South 8.1 mph - N/A   Clear
5:34 AM 56.8 °F 42.8 °F 59% 30.09 in 10.0 mi South 6.9 mph - N/A   Clear
5:55 AM 56.1 °F 42.8 °F 61% 30.09 in 10.0 mi South 8.1 mph - N/A   Clear
6:34 AM 55.4 °F 42.4 °F 62% 30.09 in 10.0 mi South 11.5 mph - N/A   Clear
6:55 AM 54.7 °F 42.4 °F 63% 30.09 in 10.0 mi South 9.2 mph 17.3 mph N/A   Clear
7:14 AM 54.9 °F 42.4 °F 63% 30.09 in 10.0 mi South 9.2 mph - N/A   Clear
7:34 AM 55.0 °F 42.3 °F 62% 30.08 in 10.0 mi South 8.1 mph - N/A   Clear
7:55 AM 55.6 °F 42.6 °F 62% 30.09 in 10.0 mi South 10.4 mph - N/A   Clear
8:34 AM 55.8 °F 42.4 °F 61% 30.08 in 10.0 mi South 9.2 mph 16.1 mph N/A   Clear
9:14 AM 56.3 °F 42.6 °F 60% 30.08 in 10.0 mi South 11.5 mph 17.3 mph N/A   Clear
9:35 AM 57.0 °F 42.8 °F 59% 30.08 in 10.0 mi South 8.1 mph 17.3 mph N/A   Clear
9:55 AM 59.2 °F 43.7 °F 57% 30.08 in 10.0 mi South 12.7 mph 20.7 mph N/A   Clear
10:35 AM 63.0 °F 45.1 °F 52% 30.08 in 10.0 mi South 15.0 mph 25.3 mph N/A   Clear
10:54 AM 63.9 °F 45.9 °F 52% 30.08 in 10.0 mi South 13.8 mph 23.0 mph N/A   Clear
11:14 AM 64.2 °F 45.9 °F 51% 30.06 in 10.0 mi South 13.8 mph 26.5 mph N/A   Clear
11:35 AM 64.2 °F 46.0 °F 52% 30.06 in 10.0 mi South 16.1 mph 28.8 mph N/A   Clear
11:54 AM 65.7 °F 46.6 °F 50% 30.04 in 10.0 mi South 17.3 mph 25.3 mph N/A   Clear
12:14 PM 66.0 °F 46.8 °F 50% 30.03 in 10.0 mi South 11.5 mph 28.8 mph N/A   Clear
12:35 PM 65.1 °F 46.4 °F 51% 30.02 in 10.0 mi South 10.4 mph 23.0 mph N/A   Clear
1:14 PM 67.8 °F 47.5 °F 48% 30.00 in 10.0 mi SSW 20.7 mph 28.8 mph N/A   Clear
1:35 PM 68.4 °F 47.3 °F 47% 29.99 in 10.0 mi South 17.3 mph 29.9 mph N/A   Clear
1:54 PM 68.2 °F 46.9 °F 47% 29.99 in 10.0 mi South 15.0 mph 26.5 mph N/A   Clear
2:14 PM 68.2 °F 46.4 °F 46% 29.97 in 10.0 mi South 13.8 mph 29.9 mph N/A   Clear
2:34 PM 68.4 °F 46.6 °F 46% 29.97 in 10.0 mi South 17.3 mph 28.8 mph N/A   Clear
2:54 PM 68.2 °F 46.2 °F 45% 29.96 in 10.0 mi South 18.4 mph 24.2 mph N/A   Clear
3:15 PM 68.0 °F 46.4 °F 46% 29.96 in 10.0 mi South 12.7 mph 24.2 mph N/A   Clear
3:34 PM 68.4 °F 46.9 °F 46% 29.96 in 10.0 mi SSW 15.0 mph 26.5 mph N/A   Clear
3:54 PM 68.2 °F 46.4 °F 46% 29.96 in 10.0 mi South 11.5 mph 23.0 mph N/A   Clear
4:15 PM 67.5 °F 46.4 °F 47% 29.96 in 10.0 mi South 15.0 mph 28.8 mph N/A   Clear
4:34 PM 66.6 °F 46.4 °F 48% 29.96 in 10.0 mi South 11.5 mph 27.6 mph N/A   Clear
4:55 PM 65.3 °F 46.2 °F 50% 29.95 in 10.0 mi South 12.7 mph 26.5 mph N/A   Clear
5:14 PM 64.4 °F 46.4 °F 52% 29.95 in 10.0 mi South 15.0 mph 26.5 mph N/A   Clear
5:34 PM 63.5 °F 46.4 °F 54% 29.95 in 10.0 mi South 13.8 mph 26.5 mph N/A   Clear
5:55 PM 62.6 °F 45.9 °F 54% 29.94 in 10.0 mi South 15.0 mph 25.3 mph N/A   Clear
6:14 PM 61.9 °F 45.5 °F 55% 29.95 in 10.0 mi South 13.8 mph 21.9 mph N/A   Clear
6:35 PM 61.7 °F 45.5 °F 55% 29.96 in 10.0 mi South 12.7 mph 20.7 mph N/A   Clear
6:55 PM 61.2 °F 45.0 °F 55% 29.95 in 10.0 mi South 12.7 mph 20.7 mph N/A   Clear
7:14 PM 61.2 °F 43.9 °F 53% 29.94 in 10.0 mi SSE 15.0 mph 23.0 mph N/A   Clear
7:35 PM 61.2 °F 41.5 °F 48% 29.93 in 10.0 mi South 17.3 mph 28.8 mph N/A   Clear
7:54 PM 61.0 °F 39.7 °F 46% 29.93 in 10.0 mi SSE 16.1 mph 25.3 mph N/A   Clear
8:15 PM 61.3 °F 38.1 °F 42% 29.93 in 10.0 mi South 19.6 mph 29.9 mph N/A   Scattered Clouds
8:35 PM 61.9 °F 36.9 °F 39% 29.94 in 10.0 mi South 15.0 mph 27.6 mph N/A   Mostly Cloudy
8:54 PM 61.7 °F 36.9 °F 40% 29.94 in 10.0 mi South 16.1 mph 27.6 mph N/A   Overcast
9:15 PM 62.1 °F 37.2 °F 40% 29.95 in 10.0 mi South 16.1 mph 27.6 mph N/A   Overcast
9:35 PM 62.6 °F 37.6 °F 40% 29.94 in 10.0 mi South 15.0 mph 28.8 mph N/A   Overcast
9:54 PM 62.6 °F 37.0 °F 39% 29.93 in 10.0 mi South 11.5 mph 24.2 mph N/A   Overcast
10:15 PM 62.6 °F 36.5 °F 38% 29.93 in 10.0 mi South 12.7 mph 23.0 mph N/A   Overcast
10:34 PM 62.2 °F 36.3 °F 38% 29.92 in 10.0 mi South 13.8 mph 23.0 mph N/A   Overcast
10:54 PM 61.9 °F 36.9 °F 39% 29.92 in 10.0 mi South 12.7 mph 24.2 mph N/A Rain Light Rain
11:15 PM 61.7 °F 36.7 °F 39% 29.91 in 10.0 mi South 12.7 mph 18.4 mph N/A   Overcast
11:34 PM 61.7 °F 37.4 °F 41% 29.91 in 10.0 mi South 9.2 mph 20.7 mph N/A   Overcast
11:54 PM 61.0 °F 39.6 °F 45% 29.91 in 10.0 mi South 11.5 mph 21.9 mph N/A Rain Light Rain